Stockton, CA

9:47 AM PST on December 18, 2017 (GMT -0800)
Stockton Metro

Weather History for KSCK - December, 2011

Change the Weather History Date:

Thursday, December 15, 2011

  Actual Average Record
Temperature  
Mean Temperature 47 °F -  
Max Temperature 52 °F 54 °F 69 °F (1958)
Min Temperature 41 °F 37 °F 24 °F (1975)
Degree Days  
Heating Degree Days 18 20  
Month to date heating degree days 299 278  
Since 1 July heating degree days 780 735  
Cooling Degree Days 0 0  
Month to date cooling degree days 0 0  
Year to date cooling degree days 1191 1320  
Moisture  
Dew Point 41 °F    
Average Humidity 83    
Maximum Humidity 96    
Minimum Humidity 70    
Precipitation  
Precipitation 0.15 in 0.07 in 0.93 in (2014)
Month to date precipitation 0.15 0.97  
Year to date precipitation 10.10 12.81  
Since 1 July precipitation 1.63  
Snow  
Snow 0.00 in - 0.00 in (2001)
Month to date snowfall 0.0  
Since 1 July snowfall 0.0  
Snow Depth -    
Sea Level Pressure  
Sea Level Pressure 30.21 in    
Wind  
Wind Speed 7 mph (NNW)    
Max Wind Speed 21 mph    
Max Gust Speed 23 mph    
Visibility 7 miles    
Events Rain    
T = Trace of Precipitation, MM = Missing Value Source: NWS Daily Summary

Daily Weather History Graph

Daily Weather History Graph

Search for Another Location

Airport or City:

Trip Planner

Search our weather history database for the weather conditions in past years. The results will help you decide how hot, cold, wet, or windy it might be!

Date:

Astronomy

Dec. 15, 2011 Rise Set
Actual Time 7:13 AM PST 4:46 PM PST
Civil Twilight 6:43 AM PST 5:16 PM PST
Nautical Twilight 6:10 AM PST 5:49 PM PST
Astronomical Twilight 5:38 AM PST 6:21 PM PST
Moon 10:14 PM PST (12/15) 10:36 AM PST (12/15)
Length of Visible Light 10h 32m
Length of Day
9h 33m
Waning Gibbous, 73% of the Moon is Illuminated
Dec 15
Waning Gibbous
Dec 17
Last Quarter
Dec 24
New
Dec 31
First Quarter
Jan 8
Full

Hourly Weather History & Observations

Time (PST) Temp. Windchill Dew Point Humidity Pressure Visibility Wind Dir Wind Speed Gust Speed Precip Events Conditions
12:55 AM 44.1 °F 42.5 °F 36.0 °F 73% 30.27 in 7.0 mi North 3.5 mph - N/A   Mostly Cloudy
1:55 AM 42.1 °F - 36.0 °F 79% 30.25 in 7.0 mi Calm Calm - N/A   Overcast
2:55 AM 43.0 °F 38.2 °F 35.1 °F 74% 30.23 in 7.0 mi East 8.1 mph - N/A   Overcast
3:55 AM 42.8 °F 38.6 °F 35.6 °F 76% 30.21 in 9.0 mi East 6.9 mph - N/A Rain Light Rain
4:55 AM 42.1 °F 37.7 °F 39.9 °F 92% 30.20 in 3.0 mi South 6.9 mph - 0.06 in Rain Rain
5:53 AM 42.8 °F 38.6 °F 41.0 °F 93% 30.22 in 2.5 mi North 6.9 mph - N/A Rain Light Rain
5:55 AM 42.1 °F 37.7 °F 41.0 °F 96% 30.22 in 2.5 mi North 6.9 mph - 0.03 in Rain Light Rain
6:55 AM 42.8 °F 41.1 °F 41.0 °F 93% 30.23 in 2.5 mi ENE 3.5 mph - N/A Rain Light Rain
7:55 AM 42.1 °F 39.2 °F 42.1 °F 100% 30.23 in 2.5 mi West 4.6 mph - 0.00 in   Overcast
8:55 AM 45.0 °F 41.2 °F 43.0 °F 93% 30.24 in 2.5 mi NNE 6.9 mph - 0.00 in Rain Light Rain
9:02 AM 44.6 °F 40.7 °F 42.8 °F 93% 30.25 in 2.0 mi NNE 6.9 mph - N/A Rain Light Rain
9:19 AM 46.4 °F 42.9 °F 42.8 °F 87% 30.25 in 3.0 mi North 6.9 mph - 0.00 in   Overcast
9:55 AM 46.9 °F - 44.1 °F 90% 30.26 in 5.0 mi North 8.1 mph - 0.00 in   Mostly Cloudy
10:55 AM 48.9 °F - 45.0 °F 86% 30.25 in 8.0 mi North 10.4 mph - N/A   Mostly Cloudy
11:55 AM 51.1 °F - 45.0 °F 80% 30.22 in 7.0 mi NNW 16.1 mph - N/A   Mostly Cloudy
12:55 PM 51.1 °F - 44.1 °F 77% 30.19 in 9.0 mi NW 16.1 mph - N/A   Overcast
1:55 PM 52.0 °F - 44.1 °F 74% 30.18 in 10.0 mi NW 15.0 mph 23.0 mph N/A   Mostly Cloudy
2:55 PM 51.1 °F - 43.0 °F 74% 30.17 in 10.0 mi NNW 17.3 mph - N/A   Mostly Cloudy
3:02 PM 51.8 °F - 42.8 °F 71% 30.17 in 10.0 mi NW 16.1 mph - N/A   Mostly Cloudy
3:33 PM 51.8 °F - 42.8 °F 71% 30.17 in 10.0 mi NNW 13.8 mph - N/A   Scattered Clouds
3:55 PM 51.8 °F - 42.8 °F 71% 30.18 in 10.0 mi NNW 11.5 mph - N/A   Clear
4:55 PM 48.9 °F - 42.1 °F 77% 30.18 in 10.0 mi NW 11.5 mph - N/A   Clear
5:55 PM 45.0 °F 40.1 °F 41.0 °F 86% 30.18 in 9.0 mi West 9.2 mph - N/A   Clear
6:55 PM 46.0 °F 40.6 °F 41.0 °F 83% 30.18 in 10.0 mi West 11.5 mph - N/A   Clear
7:55 PM 45.0 °F 39.3 °F 39.9 °F 82% 30.19 in 10.0 mi West 11.5 mph - N/A   Clear
8:55 PM 44.1 °F 39.0 °F 37.9 °F 79% 30.19 in 10.0 mi West 9.2 mph - N/A   Clear
9:55 PM 43.0 °F 38.2 °F 37.9 °F 82% 30.20 in 10.0 mi WNW 8.1 mph - N/A   Clear
10:55 PM 39.9 °F - 37.0 °F 89% 30.21 in 10.0 mi Calm Calm - N/A   Clear
11:55 PM 37.0 °F 32.4 °F 34.0 °F 89% 30.21 in 10.0 mi West 5.8 mph - N/A   Clear